Location: Gwatt
(46.7204°N, 7.6223°E)
Time: 02:53:04
(UTC+00:00)

Courier 1B Rocket - Pass Details

Date: 24 January 2021
Orbit: 920 x 1202 km, 28.3° (Epoch: 05 March)

Event Time Altitude Azimuth Distance (km) Brightness Sun altitude
Rises 09:27:51 0° 244° (WSW) 3,866 8.1 17.6°
Reaches altitude 10° 09:31:52 10° 223° (SW) 2,968 7.8 18.0°
Maximum altitude 09:35:48 15° 190° (S) 2,638 8.2 18.3°
Drops below altitude 10° 09:39:51 10° 158° (SSE) 3,063 9.9 18.7°
Sets 09:44:06 0° 137° (SE) 4,061 9.7 19.0°
